• MPC Preparation (Info)

  • MPEC 2012-F75 : 2012 FM35

    The following Minor Planet Electronic Circular may be linked-to from your own Web pages, but must not otherwise be redistributed electronically.

    A form allowing access to any MPEC is at the bottom of this page.


    Read MPEC 2012-F74 Read MPEC 2012-F76


    M.P.E.C. 2012-F75                                Issued 2012 Mar. 25, 18:32 UT
    
         The Minor Planet Electronic Circulars contain information on unusual
             minor planets and routine data on comets.  They are published
       on behalf of Commission 20 of the International Astronomical Union by the
              Minor Planet Center, Smithsonian Astrophysical Observatory,
                              Cambridge, MA 02138, U.S.A.
    
                 Prepared using the Tamkin Foundation Computer Network
    
                                  MPC@CFA.HARVARD.EDU
                URL https://www.minorplanetcenter.net/    ISSN 1523-6714
    
                                       2012 FM35
    
    Observations:
         K12F35M* C2012 03 23.32537 14 27 04.92 +14 54 10.7          18.6  cEF075704
         K12F35M  C2012 03 23.33601 14 26 44.56 +14 51 38.7          18.2  cEF075704
         K12F35M  C2012 03 23.34663 14 26 24.28 +14 49 06.7          18.2  cEF075704
         K12F35M  C2012 03 23.35855 14 26 01.48 +14 46 15.9          19.2  cEF075704
         K12F35M  C2012 03 23.36932 14 25 40.85 +14 43 40.7          18.7  cEF075704
         K12F35M  C2012 03 24.32285 14 02 20.89 +11 06 58.1          18.3  cEF075704
         K12F35M  C2012 03 24.33357 14 02 03.95 +11 04 45.1          18.7  cEF075704
         K12F35M  C2012 03 24.34435 14 01 46.95 +11 02 30.6          18.5  cEF075704
         K12F35M  C2012 03 24.35515 14 01 29.97 +11 00 14.9          18.3  cEF075704
         K12F35M  C2012 03 24.36585 14 01 13.09 +10 58 01.0          18.7  cEF075704
         K12F35M KC2012 03 25.09345 13 46 17.46 +08 31 23.0                uEF075J95
         K12F35M KC2012 03 25.09544 13 46 14.85 +08 31 00.6                uEF075J95
         K12F35M KC2012 03 25.09742 13 46 12.29 +08 30 38.9          18.1 RuEF075J95
         K12F35M KC2012 03 25.11857 13 45 38.74 +08 27 26.2                tEF075204
         K12F35M KC2012 03 25.12614 13 45 28.93 +08 26 00.9                tEF075204
         K12F35M KC2012 03 25.13379 13 45 19.06 +08 24 34.2          18.0 RtEF075204
         K12F35M KC2012 03 25.14149 13 45 13.03 +08 23 24.7          18.5 VvEF075I93
         K12F35M KC2012 03 25.14827 13 45 04.22 +08 22 08.8          18.5 VvEF075I93
         K12F35M KC2012 03 25.15768 13 44 52.10 +08 20 23.2          18.6 VvEF075I93
         K12F35M  C2012 03 25.27549 13 43 20.18 +08 00 55.4          18.9 RcEF075854
         K12F35M  C2012 03 25.27725 13 43 17.77 +08 00 36.5          18.9 RcEF075854
         K12F35M  C2012 03 25.27901 13 43 15.59 +08 00 19.5          18.9 RcEF075854
         K12F35M KC2012 03 25.40473 13 40 24.51 +07 36 57.3          17.8 RuEF075H36
         K12F35M KC2012 03 25.40597 13 40 22.98 +07 36 44.7          17.9 RuEF075H36
         K12F35M KC2012 03 25.40723 13 40 21.38 +07 36 31.1          18.3 RuEF075H36
         K12F35M KC2012 03 25.40849 13 40 19.80 +07 36 16.7          18.0 RuEF075H36
    
    Observer details:
    204 Schiaparelli Observatory.  Observer L. Buzzi.  0.60-m f/4.64 reflector
        + CCD.
    704 Lincoln Laboratory ETS, New Mexico.  Observers M. Blythe, G. Spitz,
        R. Brungard, J. Paige, P. Festler, T. McVey, A. Valdivia, C. Gall.  1.0-m
        f/2.15 reflector + CCD.
    854 Sabino Canyon Observatory, Tucson.  Observer J. E. McGaha.  0.36-m f/10.0
        Schmidt-Cassegrain + CCD.
    H36 Sandlot Observatory, Scranton.  Observer G. Hug.  0.56-m reflector + CCD.
    I93 St Pardon de Conques.  Observer F. Losse.  0.40-m f/5.0 reflector + CCD.
    J95 Great Shefford.  Observer P. Birtwhistle.  0.40-m f/6.0 Schmidt-Cassegrain
        + CCD.
    
    Orbital elements:
    2012 FM35                                                Earth MOID = 0.0077 AU
    Epoch 2012 Mar. 14.0 TT = JDT 2456000.5                 MPC
    M  69.86253              (2000.0)            P               Q
    n   0.96399498     Peri.   77.69699     -0.00630400     -0.99995329
    a   1.0148913      Node    12.67105     +0.90399555     -0.00883065
    e   0.1216271      Incl.    1.91390     +0.42749539     +0.00392790
    P   1.02           H   26.6           G   0.15           U   6
    Residuals in seconds of arc
    120323 704  0.9+  1.0+    120324 704  0.6-  0.4+    120325 I93  0.3+  0.1+
    120323 704  0.0   0.1+    120325 J95  0.0   0.1-    120325 854  0.9+  0.2-
    120323 704  0.2+  0.5-    120325 J95  0.2-  0.2-    120325 854  1.2-  0.6-
    120323 704  0.1+  0.6-    120325 J95  0.2+  0.2+    120325 854  0.1+  0.9+
    120323 704  0.4-  1.1-    120325 204  0.0   0.0     120325 H36  0.1+  0.5-
    120324 704  0.2+  0.3+    120325 204  0.0   0.1+    120325 H36  0.3+  0.3+
    120324 704  0.6-  0.8+    120325 204  0.2-  0.3-    120325 H36  0.1-  0.2+
    120324 704  0.7-  0.8+    120325 I93  0.7+  0.3-    120325 H36  0.2-  0.7-
    120324 704  0.1-  0.2+    120325 I93  0.3+  0.0
    
    Ephemeris:
    2012 FM35                a,e,i = 1.01, 0.12, 2                   q = 0.8915
    Date    TT    R. A. (2000) Decl.     Delta      r     Elong.  Phase     V
    2012 02 24    22 45 46.6 +18 55 17   0.04704 0.9487    29.2   149.5    28.2
    ...
    2012 03 10    21 36 41.9 +27 53 58   0.01994 0.9781    40.8   138.4    24.7
    ...
    2012 03 18    18 11 53.4 +34 09 43   0.0099780.9947    86.3    93.2    19.9
    ...
    2012 03 24    14 09 33.5 +12 21 39   0.01205 1.0073   148.0    31.6    18.4
    2012 03 25    13 48 09.2 +08 56 28   0.01326 1.0093   154.8    24.9    18.4
    2012 03 26    13 30 45.5 +06 03 18   0.01461 1.0114   160.6    19.1    18.4
    ...
    2012 04 01    12 33 16.4 -03 48 43   0.02427 1.0235   177.6     2.3    18.8
    ...
    2012 04 09    12 05 32.3 -08 40 41   0.03915 1.0392   163.6    15.8    20.5
    ...
    2012 04 24    11 53 19.8 -11 43 23   0.07107 1.0663   147.3    30.6    22.3
    
    A. U. Tomatic                (C) Copyright 2012 MPC           M.P.E.C. 2012-F75
    

    Read MPEC 2012-F74 Read MPEC 2012-F76


    MPEC number:

    Enter an MPEC number in one of the following forms:

    • 1997-B01 (the full form)
    • J97B01 (the packed version of the full form)
    • B01 (the abbreviated form)